User: anonymous
Location: Unspecified
(0.0000°N, 0.0000°E)
Time: 22:24:57
(UTC+00:00)
Language:

CLOUDSAT - Orbit

View from above orbital plane
View from above orbital plane
View from above satellite
View from above satellite

Ground track
Ground track

The orbit data is extracted from the following two-line orbital elements,

1 29107U 06016A   14265.22216863  .00000550  00000-0  13220-3 0  7797
2 29107 098.2042 207.5761 0001315 078.8276 281.3079 14.57104560446964
Epoch (UTC): 22 September 2014 05:19:55
Eccentricity: 0.0001315
inclination: 98.2042°
perigee height: 701 km
apogee height: 703 km
right ascension of ascending node: 207.5761°
argument of perigee: 78.8276°
revolutions per day: 14.57104560
mean anomaly at epoch: 281.3079°
orbit number at epoch: 44696

The dashed part of the orbit path shows where the satellite is in the earth's shadow,  

DLR